Location: Unspecified
(0.0000°N, 0.0000°E)
Time: 17:01:42
(UTC+00:00)

Hubble Space Telescope - Pass Details

Date: 18 March 2019
Orbit: 537 x 540 km, 28.5° (Epoch: 23 May)

Event Time Altitude Azimuth Distance (km) Brightness Sun altitude
Rises 19:31:48 0° 253° (WSW) 2,677 5.7 -20.9°
Reaches altitude 10° 19:34:10 10° 261° (W) 1,785 4.6 -21.5°
Maximum altitude 19:38:01 38° 330° (NNW) 821 1.9 -22.5°
Enters shadow 19:38:55 34° 1° (N) 899 1.8 -22.7°
